Flag for Australia Weather past 2 weeks in Mandurah, Western Australia, Australia

Now
54 °F

Cool.


Feels Like: 52 °F
Forecast: 55 / 63 °F
Wind: 8 mph from Southeast

Location: Mandurah Aws

Current Time: Aug 31, 2014 at 4:46:57 AM

Latest Report: Aug 31, 2014 at 3:00 AM


Visibility: N/A

Pressure: 30.05 "Hg

Humidity: 99%

Dew point: 54 °F

Location of MandurahLocation

Historic Weather in Mandurah — Graph

°F

Mandurah temperature yesterday

Maximum temperature yesterday: 62 °F (at 3:00 PM)
Minimum temperature yesterday: 55 °F (at 11:00 PM)
Average temperature yesterday: 60 °F

Past Weeks' High & Low Weather Summary

 TemperatureHumidityPressure
High69 °F (Aug 17, 12:00 PM)100% (Aug 16, 6:00 AM)30.25 "Hg (Aug 16, 6:00 AM)
Low51 °F (Aug 16, 8:00 AM)47% (Aug 22, 9:00 AM)29.72 "Hg (Aug 21, 5:00 AM)
Average61 °F81%30.04 "Hg
* Reported Aug 16 3:00 AM — Aug 31 3:00 AM, Mandurah, Weather by CustomWeather, © 2014

Note: Actual official high and low records may vary slightly from our data, if they occured in-between our weather recording intervals... More about our weather records

Advertising

Mandurah weather history for previous 24 hours

 ConditionsComfort  
Time TempWeatherWind HumidityBarometerVisibility
3:00 AM
Aug 31
54 °FCool.8 mph99%30.05 "HgN/A
2:00 AM54 °FCool.3 mph100%30.05 "HgN/A
12:00 AM55 °FCool.3 mph100%30.06 "HgN/A
11:00 PM
Aug 30
55 °FCool.2 mph99%30.04 "HgN/A
9:00 PM57 °FCool.2 mph85%30.06 "HgN/A
8:00 PM59 °FCool.6 mph75%30.05 "HgN/A
6:00 PM60 °FCool.5 mph67%30.02 "HgN/A
5:00 PM62 °FCool.3 mph65%30.02 "HgN/A
3:00 PM62 °FMild.6 mph63%29.99 "HgN/A
2:00 PM62 °FCool.5 mph65%29.99 "HgN/A
12:00 PM60 °FCool.8 mph82%30.01 "HgN/A
11:00 AM61 °FCool.7 mph81%30.01 "HgN/A
9:00 AM59 °FCool.7 mph95%30.00 "HgN/A
8:00 AM59 °FCool.7 mph99%29.98 "HgN/A
6:00 AM60 °FCool.7 mph100%29.93 "HgN/A
5:00 AM60 °FCool.6 mph100%29.91 "HgN/A
Weather by CustomWeather, © 2014

See weather overviewHow to use our weather pages